Flag for U.S.A. Weather past 2 weeks in Tempe, Arizona, U.S.A.

Now
69 °F

Mostly cloudy.


Feels Like: 69 °F
Forecast: 55 / 76 °F
Wind: No wind

Location: Phoenix Sky Harbor International Airport

Current Time: Jan 29, 2015 at 3:27:51 PM

Latest Report: Jan 29, 2015 at 1:51 PM


Visibility: 10 mi

Pressure: 29.97 "Hg

Humidity: 41%

Dew point: 44 °F

Location of TempeLocation

Historic Weather in Tempe — Graph

°F

Tempe temperature yesterday

Maximum temperature yesterday: 74 °F (at 2:51 PM)
Minimum temperature yesterday: 52 °F (at 7:51 AM)
Average temperature yesterday: 64 °F

Past Weeks' High & Low Weather Summary

 TemperatureHumidityPressure
High76 °F (Jan 25, 2:51 PM)89% (Jan 27, 5:51 AM)30.31 "Hg (Jan 27, 5:51 AM)
Low45 °F (Jan 23, 4:51 AM)8% (Jan 24, 2:51 PM)29.79 "Hg (Jan 21, 5:51 AM)
Average61 °F41%30.09 "Hg
* Reported Jan 14 1:51 PM — Jan 29 1:51 PM, Tempe, Weather by CustomWeather, © 2014

Note: Actual official high and low records may vary slightly from our data, if they occured in-between our weather recording intervals... More about our weather records

Advertising

Tempe weather history for previous 24 hours

 ConditionsComfort  
Time TempWeatherWind HumidityBarometerVisibility
1:51 PM
Jan 29
69 °FMostly cloudy.No wind41%29.97 "Hg10 mi
12:51 PM68 °FCloudy.6 mph40%30.00 "Hg10 mi
11:51 AM67 °FMostly cloudy.3 mph49%30.03 "Hg10 mi
10:51 AM66 °FMostly cloudy.No wind50%30.04 "Hg10 mi
9:51 AM64 °FMore clouds than sun.No wind52%30.04 "Hg10 mi
8:51 AM61 °FCloudy.5 mph60%30.03 "Hg10 mi
7:51 AM59 °FMostly cloudy.5 mph75%30.02 "Hg10 mi
6:51 AM59 °FPassing clouds.No wind75%30.01 "Hg10 mi
5:51 AM59 °FPassing clouds.3 mph75%30.00 "Hg10 mi
4:51 AM59 °FPassing clouds.5 mph75%30.00 "Hg10 mi
3:51 AM59 °FMostly cloudy.No wind75%30.01 "Hg10 mi
2:51 AM61 °FMostly cloudy.3 mph70%30.03 "Hg10 mi
1:51 AM63 °FMostly cloudy.No wind65%30.02 "Hg10 mi
12:51 AM63 °FMostly cloudy.No wind63%30.03 "Hg10 mi
11:51 PM
Jan 28
64 °FMostly cloudy.No wind63%30.04 "Hg10 mi
10:51 PM65 °FMostly cloudy.5 mph61%30.03 "Hg10 mi
9:51 PM67 °FMostly cloudy.6 mph57%30.04 "Hg10 mi
8:51 PM65 °FMostly cloudy.5 mph63%30.03 "Hg10 mi
7:51 PM68 °FPassing clouds.7 mph57%30.03 "Hg10 mi
6:51 PM69 °FPartly cloudy.7 mph55%30.02 "Hg10 mi
5:51 PM73 °FPartly sunny.8 mph38%30.01 "Hg10 mi
4:51 PM73 °FPartly sunny.9 mph41%30.02 "Hg10 mi
3:51 PM74 °FBroken clouds.6 mph38%30.02 "Hg10 mi
Weather by CustomWeather, © 2014

See weather overviewHow to use our weather pages